sat.trackr.live / text

‹ back to catalog

STARLINK-37255

NORAD 68554 · 2026-070N

PAYLOAD ACTIVE UNKNOWN

§ Identity

Operator
Country
US
Launch date
2026-04-02
Launch site
AFETR
Launch vehicle
Mass (kg)
RCS (m²)

Purposes: comms

External: N2YO · Heavens-Above · Gunter

§ Orbital elements

Epoch: 2026-09-19T22:46:37.132032Z

Period
93.85 min
Inclination
53.1597°
Eccentricity
0.0001620
Mean motion
15.34396937 rev/d
Perigee alt
461.6 km
Apogee alt
463.8 km
Semi-major
6,840.8 km
B*
5.1926e-4
RAAN
176.2341°
Arg perigee
81.9255°
Mean anomaly
278.1931°
Rev number
2,635

§ Raw data

STARLINK-372551 68554U 26070N   26262.94904088  .00017206  00000+0  51926-3 0  99942 68554  53.1597 176.2341 0001620  81.9255 278.1931 15.34396937 26350

JSON: /api/v1/satellites/68554 · /tle

For live sub-satellite position, see the globe view (requires WebGL).

§ Visibility from observer

Set your observer location to see the next 7 days of passes ≥ 10°. The values pass through the URL so the page stays shareable.

No JS? Fill the form by hand. The geolocation button needs JavaScript.